Skip Page Navigation
NASA JPL Caltech
NASA Logo - Jet Propulsion Laboratory + View the NASA Portal
+ Near-Earth Object (NEO) Program
Search JPL
JPL Home Earth Solar System Stars & Galaxies Technology
JPL Solar System Dynamics
BODIES ORBITS EPHEMERIDES TOOLS PHYSICAL DATA DISCOVERY FAQ SITE MAP
JPL Small-Body Database Browser
Search: [ help ]  
18750 Leonidakimov (1999 GA9)
Classification: Main-belt Asteroid          SPK-ID: 2018750
Ephemeris | Orbit Diagram | Orbital Elements | Physical Parameters | Discovery Circumstances | Close-Approach Data ]

[ show orbit diagram ]
Orbital Elements at Epoch 2457000.5 (2014-Dec-09.0) TDB
Reference: JPL 7 (heliocentric ecliptic J2000)
 Element Value Uncertainty (1-sigma)   Units 
e .2359207140075899 7.3999e-08  
a 2.608502201887216 2.5933e-08 AU
q 1.993102499927614 1.8916e-07 AU
i 5.631320524825336 7.823e-06 deg
node 100.4193611297074 8.1686e-05 deg
peri 196.7248045916761 8.3413e-05 deg
M 203.0973888879272 1.7405e-05 deg
tp 2457671.176221002777
(2016-Oct-09.67622100)
7.7405e-05 JED
period 1538.810844827437
4.21
2.2948e-05
6.283e-08
d
yr
n .2339468825620153 3.4887e-09 deg/d
Q 3.223901903846819 3.2051e-08 AU
  Orbit Determination Parameters
   # obs. used (total)      588  
   data-arc span      8294 days (22.71 yr)  
   first obs. used      1991-07-15  
   last obs. used      2014-03-30  
   planetary ephem.      DE431  
   SB-pert. ephem.      SB431-BIG16  
   condition code      0  
   fit RMS      .59463  
   data source      ORB  
   producer      Otto Matic  
   solution date      2014-Jun-09 22:12:20  

Additional Information
 Earth MOID = .97915 AU 
 T_jup = 3.364 
[ show covariance matrix ]

Ephemeris | Orbit Diagram | Orbital Elements | Physical Parameters | Discovery Circumstances | Close-Approach Data ]

Physical Parameter Table
Parameter Symbol Value Units Sigma Reference Notes
absolute magnitude H 14.7 mag n/a MPO250398  

18750 Leonidakimov           Discovered 1999 Apr. 10 by the Lowell Observatory Near-Earth Object Search at the Anderson Mesa Station.
Leonid Afanas'evich Akimov (b. 1937) is a Ukrainian planetary scientist. An expert in lunar photometry, he was one of the earliest to study the opposition effect, and additionally made laboratory measurements of lunar regolith particles. The name was suggested by D. F. Lupishko and Yu. G. Shkuratov.
NOTE: some special characters may not display properly (any characters within {} are an attempt to place the proper accent above a character)
Reference: 20080321/MPCPages.arcLast Updated: 2008-03-26

[ show close-approach data ]
Alternate Designations
 1999 GA9 = 1991 NP7 = 1996 XH11 
Ephemeris | Orbit Diagram | Orbital Elements | Physical Parameters | Discovery Circumstances | Close-Approach Data ]
ABOUT SSD CREDITS/AWARDS PRIVACY/COPYRIGHT GLOSSARY LINKS
FirstGov 2014-Sep-01 07:32 UT
(server date/time)  
NASA Home Page
Site Manager:   Donald K. Yeomans
Webmaster  Alan B. Chamberlin